DW1234 Weather Reports


Display with metric or nautical units.
time (UTC)temp
F
wind
direction
speed
MPH
gust
MPH
rain 1hr
in
rain 24hr
in
rain mn
in
humidity
%
barometer
mb
20260504004517 71 225 4.0 9.0 0.00 0.00 0.00 34 1008.3
20260504004227 72 219 5.0 9.0 0.00 0.00 0.00 35 1009.2
20260504003738 72 202 5.0 8.0 0.00 0.00 0.00 34 1009.3
20260504003222 72 201 5.0 8.0 0.00 0.00 0.00 34 1009.2
20260504003021 72 211 5.0 8.0 0.00 0.00 0.00 34 1008.3
20260504002732 73 206 5.0 10.0 0.00 0.00 0.00 33 1009.3
20260504002240 73 225 5.0 12.0 0.00 0.00 0.00 33 1009.3
20260504001723 73 211 7.0 12.0 0.00 0.00 0.00 33 1009.3
20260504001526 73 214 7.0 12.0 0.00 0.00 0.00 32 1008.5
20260504001237 74 207 8.0 12.0 0.00 0.00 0.00 33 1009.4
20260504000748 74 180 7.0 10.0 0.00 0.00 0.00 32 1009.5
20260504000230 74 180 7.0 10.0 0.00 0.00 0.00 32 1009.5
20260504000040 73 189 6.0 10.0 0.00 0.00 0.00 32 1008.6
20260503235743 74 182 7.0 10.0 0.00 0.00 0.00 31 1009.5
20260503235227 74 212 6.0 10.0 0.00 0.00 0.00 31 1009.5
20260503234757 74 184 6.0 11.0 0.00 0.00 0.00 32 1009.4
20260503234511 74 201 7.0 11.0 0.00 0.00 0.00 32 1008.5
20260503234247 74 172 7.0 11.0 0.00 0.00 0.00 32 1009.5
20260503233729 74 178 8.0 11.0 0.00 0.00 0.00 32 1009.6
20260503233241 74 192 9.0 11.0 0.00 0.00 0.00 32 1009.5
20260503233016 74 211 8.0 11.0 0.00 0.00 0.00 33 1008.7
20260503232725 75 208 7.0 11.0 0.00 0.00 0.00 32 1009.6
20260503232238 74 207 6.0 9.0 0.00 0.00 0.00 32 1009.7
20260503231722 74 201 4.0 8.0 0.00 0.00 0.00 33 1009.7
20260503231523 74 219 4.0 9.0 0.00 0.00 0.00 33 1008.7
20260503231235 74 209 6.0 10.0 0.00 0.00 0.00 32 1009.6
20260503230740 75 215 7.0 15.0 0.00 0.00 0.00 31 1009.7
20260503230224 74 211 9.0 15.0 0.00 0.00 0.00 33 1009.6
20260503230023 74 194 7.0 12.0 0.00 0.00 0.00 32 1008.7
20260503225755 75 203 5.0 9.0 0.00 0.00 0.00 32 1009.6
20260503225247 75 234 5.0 9.0 0.00 0.00 0.00 33 1009.7
20260503224731 75 252 7.0 10.0 0.00 0.00 0.00 33 1009.7
20260503224513 74 229 3.0 7.0 0.00 0.00 0.00 32 1008.7
20260503224244 75 226 1.0 6.0 0.00 0.00 0.00 32 1009.6
20260503223734 76 226 4.0 14.0 0.00 0.00 0.00 30 1009.7
20260503223243 76 223 7.0 14.0 0.00 0.00 0.00 31 1009.8
20260503223053 76 242 8.0 14.0 0.00 0.00 0.00 31 1008.9
20260503222725 77 282 3.0 9.0 0.00 0.00 0.00 31 1009.8
20260503222237 77 296 3.0 9.0 0.00 0.00 0.00 33 1009.8
20260503221722 76 66 1.0 8.0 0.00 0.00 0.00 31 1009.8
20260503221507 76 10 1.0 9.0 0.00 0.00 0.00 32 1008.9
20260503221257 76 57 2.0 11.0 0.00 0.00 0.00 33 1009.8
20260503220746 76 45 4.0 11.0 0.00 0.00 0.00 33 1009.8
20260503220230 77 284 3.0 10.0 0.00 0.00 0.00 29 1009.9
20260503220100 76 346 4.0 10.0 0.00 0.00 0.00 33 1009.0
20260503215743 76 240 7.0 13.0 0.00 0.00 0.00 31 1009.8
20260503215221 77 288 8.0 16.0 0.00 0.00 0.00 32 1010.0
20260503214734 77 271 9.0 16.0 0.00 0.00 0.00 31 1010.2
20260503214558 76 257 7.0 16.0 0.00 0.00 0.00 33 1009.3
20260503214247 76 288 9.0 16.0 0.00 0.00 0.00 34 1010.1
20260503213729 76 281 1.0 6.0 0.00 0.00 0.00 31 1010.3
20260503213243 75 311 3.0 6.0 0.00 0.00 0.00 36 1010.3
20260503213053 74 321 3.0 8.0 0.00 0.00 0.00 32 1009.5
20260503212726 75 229 3.0 8.0 0.00 0.00 0.00 31 1010.3
20260503212237 76 261 4.0 11.0 0.00 0.00 0.00 32 1010.5
20260503211723 77 341 7.0 13.0 0.00 0.00 0.00 32 1010.6
20260503211554 76 340 5.0 13.0 0.00 0.00 0.00 34 1009.8
20260503211252 77 298 9.0 13.0 0.00 0.00 0.00 33 1010.7
20260503210733 77 279 3.0 13.0 0.00 0.00 0.00 33 1010.8
20260503210244 76 322 4.0 12.0 0.00 0.00 0.00 33 1010.7
20260503210057 76 311 3.0 12.0 0.00 0.00 0.00 35 1009.9
20260503205726 76 355 8.0 13.0 0.00 0.00 0.00 34 1010.9
20260503205238 76 348 5.0 13.0 0.00 0.00 0.00 32 1010.9
20260503204721 76 24 3.0 11.0 0.00 0.00 0.00 34 1010.9
20260503204608 75 5 5.0 11.0 0.00 0.00 0.00 33 1010.1
20260503204256 75 303 7.0 11.0 0.00 0.00 0.00 32 1011.0
20260503203742 75 279 5.0 11.0 0.00 0.00 0.00 37 1011.2
20260503203223 76 317 5.0 11.0 0.00 0.00 0.00 32 1011.0
20260503203040 75 360 2.0 11.0 0.00 0.00 0.00 33 1010.4
20260503202735 75 44 2.0 13.0 0.00 0.00 0.00 31 1011.2
20260503202248 76 277 8.0 13.0 0.00 0.00 0.00 33 1011.4
20260503201731 76 334 9.0 15.0 0.00 0.00 0.00 31 1011.4
20260503201544 76 355 7.0 15.0 0.00 0.00 0.00 35 1010.6
20260503201244 76 360 9.0 15.0 0.00 0.00 0.00 31 1011.3
20260503200723 76 337 8.0 14.0 0.00 0.00 0.00 31 1011.6
20260503200234 75 346 7.0 14.0 0.00 0.00 0.00 34 1011.5
20260503200046 74 346 10.0 14.0 0.00 0.00 0.00 32 1010.8
20260503195742 75 317 7.0 13.0 0.00 0.00 0.00 34 1011.5
20260503195224 74 323 9.0 20.0 0.00 0.00 0.00 32 1011.6
20260503194737 76 355 12.0 20.0 0.00 0.00 0.00 30 1011.6
20260503194608 75 42 8.0 20.0 0.00 0.00 0.00 33 1010.7
20260503194251 76 337 15.0 20.0 0.00 0.00 0.00 32 1011.6
20260503193735 76 360 3.0 18.0 0.00 0.00 0.00 31 1011.6
20260503193248 77 319 8.0 18.0 0.00 0.00 0.00 32 1011.7
20260503193053 76 302 11.0 18.0 0.00 0.00 0.00 34 1010.9
20260503192732 77 336 12.0 19.0 0.00 0.00 0.00 32 1011.7
20260503192221 76 15 14.0 19.0 0.00 0.00 0.00 32 1011.7
20260503191747 76 333 12.0 19.0 0.00 0.00 0.00 32 1011.7
20260503191535 76 322 14.0 19.0 0.00 0.00 0.00 30 1010.9
20260503191232 77 323 11.0 17.0 0.00 0.00 0.00 34 1011.6
20260503190743 76 14 13.0 19.0 0.00 0.00 0.00 31 1011.7
20260503190226 76 5 8.0 19.0 0.00 0.00 0.00 32 1011.7
20260503190046 75 14 11.0 19.0 0.00 0.00 0.00 32 1011.0
20260503185739 76 340 12.0 18.0 0.00 0.00 0.00 31 1011.9
20260503185248 76 355 10.0 16.0 0.00 0.00 0.00 33 1011.7
20260503184739 75 15 9.0 18.0 0.00 0.00 0.00 32 1011.8
20260503184529 75 355 10.0 18.0 0.00 0.00 0.00 33 1011.1
20260503184223 75 5 12.0 19.0 0.00 0.00 0.00 32 1011.9
20260503183730 75 344 14.0 19.0 0.00 0.00 0.00 32 1011.9
20260503183239 76 317 9.0 17.0 0.00 0.00 0.00 33 1011.8
20260503183025 75 355 4.0 17.0 0.00 0.00 0.00 35 1011.2
20260503182724 75 355 8.0 17.0 0.00 0.00 0.00 33 1011.9
20260503182235 75 21 8.0 18.0 0.00 0.00 0.00 32 1012.2
20260503181745 74 330 14.0 19.0 0.00 0.00 0.00 32 1012.2
20260503181532 73 19 12.0 19.0 0.00 0.00 0.00 34 1011.4
20260503181229 74 11 14.0 19.0 0.00 0.00 0.00 33 1012.2
20260503180739 72 5 11.0 19.0 0.00 0.00 0.00 32 1012.3
20260503180223 72 11 7.0 21.0 0.00 0.00 0.00 33 1012.3
20260503180051 72 339 10.0 21.0 0.00 0.00 0.00 30 1011.6
20260503175733 74 360 17.0 21.0 0.00 0.00 0.00 31 1012.4
20260503175244 74 15 14.0 19.0 0.00 0.00 0.00 34 1012.3
20260503174727 73 22 9.0 22.0 0.00 0.00 0.00 32 1012.4
20260503174551 73 5 9.0 22.0 0.00 0.00 0.00 31 1011.8
20260503174240 73 333 13.0 22.0 0.00 0.00 0.00 35 1012.6
20260503173721 73 336 12.0 21.0 0.00 0.00 0.00 33 1012.5
20260503173231 73 355 9.0 17.0 0.00 0.00 0.00 32 1012.6
20260503173147 73 305 8.0 17.0 0.00 0.00 0.00 35 1011.9
20260503172743 73 360 12.0 17.0 0.00 0.00 0.00 33 1012.6
20260503172227 72 329 11.0 15.0 0.00 0.00 0.00 35 1012.6
20260503171736 72 335 8.0 13.0 0.00 0.00 0.00 37 1012.6
20260503171600 72 5 8.0 13.0 0.00 0.00 0.00 35 1011.9
20260503171502 73 355 6.0 16.0 0.00 0.00 0.00 34 1011.9
20260503171250 74 12 7.0 16.0 0.00 0.00 0.00 36 1012.7
20260503170729 73 317 10.0 16.0 0.00 0.00 0.00 37 1012.7
20260503170240 72 355 8.0 15.0 0.00 0.00 0.00 40 1012.6
20260503150747 66 303 7.0 14.0 0.00 0.00 0.00 47 1012.5
20260503150232 66 325 8.0 14.0 0.00 0.00 0.00 45 1012.5
20260503140223 62 260 12.0 18.0 0.00 0.00 0.00 47 1012.1
20260503131247 58 198 12.0 23.0 0.00 0.00 0.00 52 1011.9
20260503130747 58 259 15.0 23.0 0.00 0.00 0.00 52 1012.0
20260503130231 57 246 14.0 22.0 0.00 0.00 0.00 52 1012.0
20260503130113 57 205 13.0 22.0 0.00 0.00 0.00 52 1011.5
20260503110810 53 237 6.0 10.0 0.00 0.00 0.00 51 1011.4
20260503110227 54 272 6.0 12.0 0.00 0.00 0.00 50 1011.3
20260503090229 54 223 10.0 16.0 0.00 0.00 0.00 50 1011.3
20260503081535 51 197 6.0 10.0 0.00 0.00 0.00 53 1011.7
20260503081230 51 188 7.0 11.0 0.00 0.00 0.00 53 1011.9
20260503080741 51 205 8.0 11.0 0.00 0.00 0.00 53 1011.9
20260503080224 52 173 7.0 11.0 0.00 0.00 0.00 52 1011.9
20260503072805 52 186 7.0 12.0 0.00 0.00 0.00 51 1012.1
20260503072227 52 203 8.0 12.0 0.00 0.00 0.00 51 1012.1
20260503071739 52 178 8.0 10.0 0.00 0.00 0.00 51 1012.2
20260503071519 52 197 7.0 12.0 0.00 0.00 0.00 51 1012.1
20260503071225 52 183 8.0 13.0 0.00 0.00 0.00 50 1012.2
20260503070735 52 189 7.0 13.0 0.00 0.00 0.00 50 1012.3
20260503070243 52 151 7.0 12.0 0.00 0.00 0.00 50 1012.4
20260503060232 53 179 7.0 11.0 0.00 0.00 0.00 48 1013.1
20260503054736 53 164 6.0 11.0 0.00 0.00 0.00 48 1013.3
20260503054558 53 192 6.0 11.0 0.00 0.00 0.00 48 1013.2
20260503054250 53 211 6.0 12.0 0.00 0.00 0.00 48 1013.2
20260503053732 53 194 6.0 13.0 0.00 0.00 0.00 48 1013.3
20260503053243 53 164 9.0 13.0 0.00 0.00 0.00 48 1013.2
20260503053053 53 218 8.0 13.0 0.00 0.00 0.00 48 1013.2
20260503052728 53 164 8.0 13.0 0.00 0.00 0.00 48 1013.1
20260503052300 53 185 8.0 13.0 0.00 0.00 0.00 48 1013.2
20260503051722 54 204 9.0 13.0 0.00 0.00 0.00 48 1013.3
20260503051534 53 175 7.0 15.0 0.00 0.00 0.00 48 1013.3
20260503051235 54 197 8.0 15.0 0.00 0.00 0.00 48 1013.4
20260503050740 54 196 8.0 14.0 0.00 0.00 0.00 47 1013.4
20260503050223 54 165 9.0 13.0 0.00 0.00 0.00 47 1013.4
20260503050032 54 195 8.0 13.0 0.00 0.00 0.00 47 1013.4
20260503045726 54 205 8.0 12.0 0.00 0.00 0.00 47 1013.5
20260503045238 54 192 8.0 13.0 0.00 0.00 0.00 47 1013.5
20260503044723 55 175 8.0 14.0 0.00 0.00 0.00 46 1013.5
20260503044539 54 184 8.0 14.0 0.00 0.00 0.00 46 1013.5
20260503044235 55 200 9.0 14.0 0.00 0.00 0.00 46 1013.5
20260503043747 55 213 9.0 14.0 0.00 0.00 0.00 46 1013.5
20260503043234 55 194 9.0 15.0 0.00 0.00 0.00 45 1013.7
20260503043016 55 187 8.0 13.0 0.00 0.00 0.00 45 1013.6
20260503042747 55 211 9.0 13.0 0.00 0.00 0.00 45 1013.7
20260503042231 56 180 9.0 15.0 0.00 0.00 0.00 44 1013.8
20260503041803 56 191 9.0 18.0 0.00 0.00 0.00 44 1014.0
20260503041553 56 198 8.0 19.0 0.00 0.00 0.00 43 1013.9
20260503041227 56 217 11.0 19.0 0.00 0.00 0.00 43 1013.8
20260503040757 57 211 9.0 19.0 0.00 0.00 0.00 43 1013.9
20260503040247 57 210 9.0 17.0 0.00 0.00 0.00 43 1014.0
20260503040019 56 183 8.0 17.0 0.00 0.00 0.00 43 1014.0
20260503035736 57 172 11.0 17.0 0.00 0.00 0.00 42 1014.1
20260503035247 57 223 9.0 16.0 0.00 0.00 0.00 42 1014.2
20260503034730 57 173 11.0 18.0 0.00 0.00 0.00 42 1014.2
20260503034526 57 179 9.0 18.0 0.00 0.00 0.00 41 1014.1
20260503034245 57 145 10.0 18.0 0.00 0.00 0.00 41 1014.3
20260503033727 57 175 11.0 18.0 0.00 0.00 0.00 41 1014.3
20260503033238 58 142 10.0 16.0 0.00 0.00 0.00 41 1014.4
20260503033024 57 160 10.0 16.0 0.00 0.00 0.00 40 1014.4
20260503032723 58 173 12.0 14.0 0.00 0.00 0.00 40 1014.5
20260503032234 58 169 11.0 15.0 0.00 0.00 0.00 40 1014.6
20260503031802 58 173 11.0 17.0 0.00 0.00 0.00 39 1014.6
20260503031510 57 184 11.0 13.0 0.00 0.00 0.00 39 1014.7
20260503031225 58 162 9.0 17.0 0.00 0.00 0.00 39 1014.7
20260503030736 58 170 10.0 17.0 0.00 0.00 0.00 39 1014.7
20260503030247 58 171 11.0 16.0 0.00 0.00 0.00 39 1014.8
20260503030017 57 171 11.0 16.0 0.00 0.00 0.00 38 1014.9
20260503025731 58 187 11.0 14.0 0.00 0.00 0.00 38 1014.8
20260503025305 58 180 10.0 15.0 0.00 0.00 0.00 38 1014.9
20260503024727 58 183 10.0 14.0 0.00 0.00 0.00 38 1015.0
20260503024609 57 167 9.0 14.0 0.00 0.00 0.00 38 1015.0
20260503024501 57 157 9.0 14.0 0.00 0.00 0.00 37 1015.1
20260503024236 58 163 9.0 12.0 0.00 0.00 0.00 37 1015.1
20260503023746 58 163 9.0 11.0 0.00 0.00 0.00 37 1015.2
20260503023228 58 171 9.0 12.0 0.00 0.00 0.00 36 1015.2
20260503023043 58 164 8.0 12.0 0.00 0.00 0.00 36 1015.3
20260503022739 59 190 7.0 10.0 0.00 0.00 0.00 36 1015.3
20260503022225 59 182 7.0 9.0 0.00 0.00 0.00 36 1015.3
20260503021737 59 153 6.0 9.0 0.00 0.00 0.00 36 1015.4
20260503021550 59 171 6.0 9.0 0.00 0.00 0.00 36 1015.4
20260503021250 60 167 6.0 9.0 0.00 0.00 0.00 36 1015.4
20260503020728 60 177 7.0 9.0 0.00 0.00 0.00 35 1015.4
20260503020239 60 156 6.0 8.0 0.00 0.00 0.00 35 1015.5
20260503020059 60 171 6.0 9.0 0.00 0.00 0.00 34 1015.5
20260503015724 61 178 6.0 8.0 0.00 0.00 0.00 35 1015.5
20260503015257 61 168 6.0 9.0 0.00 0.00 0.00 34 1015.5
20260503014747 61 168 5.0 7.0 0.00 0.00 0.00 34 1015.5
20260503014537 61 168 5.0 7.0 0.00 0.00 0.00 34 1015.6
20260503014230 62 169 5.0 7.0 0.00 0.00 0.00 33 1015.5
20260503013740 62 169 5.0 7.0 0.00 0.00 0.00 32 1015.5
20260503013310 63 169 5.0 7.0 0.00 0.00 0.00 32 1015.5
20260503013030 63 169 5.0 7.0 0.00 0.00 0.00 32 1015.6
20260503012733 63 170 5.0 6.0 0.00 0.00 0.00 32 1015.5
20260503012244 64 171 5.0 6.0 0.00 0.00 0.00 31 1015.5
20260503011727 64 170 4.0 6.0 0.00 0.00 0.00 31 1015.5
20260503011524 64 169 4.0 7.0 0.00 0.00 0.00 31 1015.6
20260503011241 65 171 5.0 7.0 0.00 0.00 0.00 31 1015.5
20260503010723 65 175 4.0 7.0 0.00 0.00 0.00 30 1015.6
20260503010257 65 182 4.0 7.0 0.00 0.00 0.00 30 1015.6
20260503005739 66 181 4.0 7.0 0.00 0.00 0.00 30 1015.6
20260503005222 66 208 5.0 8.0 0.00 0.00 0.00 30 1015.6
20260503004734 66 198 6.0 9.0 0.00 0.00 0.00 30 1015.6